GEFSNE_prec_meanprecacc_318.txt.gz
Total_Precipitation_Accumulation
2.91 3.11 3.07 2.89 2.92 3.02 3.24 3.52 3.60 3.35 3.19 2.99 2.62 2.49 2.54 2.54 2.65 2.53 2.60 2.48 2.03 1.78 1.72 1.71 1.68 1.71 1.81 1.95 2.18 2.47 2.66 2.76 2.91 3.17 3.54 3.92 4.24 4.57
3.16 3.23 3.09 2.84 3.00 3.01 3.12 3.45 3.76 3.84 3.50 2.98 2.71 2.59 2.66 2.46 2.49 2.25 2.29 2.17 1.84 1.67 1.57 1.54 1.47 1.43 1.44 1.51 1.63 1.89 2.08 2.25 2.42 2.55 2.73 2.98 3.28 3.54
3.07 2.99 2.91 2.96 3.15 3.06 3.17 3.32 3.59 3.85 3.54 3.10 2.92 2.87 2.93 2.82 2.65 2.29 2.01 1.89 1.74 1.80 1.64 1.49 1.40 1.36 1.40 1.48 1.54 1.64 1.81 2.00 2.17 2.31 2.47 2.66 2.80 2.96
3.01 2.99 2.85 2.98 3.08 3.06 3.12 3.10 3.21 3.56 3.45 3.17 3.08 3.12 3.03 2.87 2.78 2.59 2.19 1.97 1.98 2.04 1.80 1.63 1.51 1.45 1.40 1.40 1.49 1.57 1.68 1.82 1.96 2.05 2.10 2.16 2.31 2.57
2.98 2.89 2.75 2.85 2.76 2.83 2.87 2.89 2.89 3.03 3.24 3.12 2.98 3.07 2.99 2.86 2.82 2.68 2.57 2.64 2.38 2.16 1.96 1.77 1.63 1.54 1.50 1.42 1.45 1.53 1.64 1.70 1.71 1.83 1.96 2.05 2.11 2.19
2.62 2.55 2.57 2.70 2.79 2.78 2.67 2.66 2.75 2.91 3.02 3.05 3.00 3.08 3.10 3.13 3.06 2.91 2.90 2.84 2.64 2.14 2.02 1.78 1.64 1.51 1.43 1.36 1.38 1.54 1.67 1.73 1.75 1.72 1.78 1.88 1.98 2.08
2.35 2.18 2.20 2.55 2.70 2.68 2.46 2.58 2.67 2.74 2.83 2.96 2.99 3.07 3.16 3.40 3.23 2.97 2.85 2.92 2.75 2.47 2.26 1.97 1.80 1.67 1.59 1.52 1.46 1.46 1.50 1.61 1.71 1.83 1.97 2.07 2.13 2.18
2.12 2.05 2.04 2.11 2.14 2.19 2.21 2.25 2.33 2.40 2.61 2.93 3.00 2.98 2.94 3.05 3.20 3.16 3.08 2.98 2.86 2.72 2.74 2.59 2.22 2.13 2.00 1.81 1.69 1.44 1.28 1.34 1.49 1.64 1.91 2.18 2.42 2.49
2.10 2.17 1.85 1.65 1.81 1.83 1.99 1.99 1.93 2.05 2.21 2.48 2.67 2.69 2.80 2.82 3.12 3.16 3.23 3.24 3.15 3.07 3.06 3.05 2.69 2.36 2.07 1.95 1.86 1.50 1.33 1.28 1.33 1.45 1.60 1.83 2.14 2.45
1.99 2.03 1.97 1.84 1.81 1.92 2.02 1.96 1.80 1.75 1.76 1.73 1.94 2.25 2.54 2.83 2.92 2.99 3.13 3.20 3.19 3.01 2.92 2.95 2.74 2.58 2.22 1.92 1.79 1.58 1.40 1.27 1.24 1.31 1.35 1.42 1.58 1.83
1.93 1.88 1.83 1.75 1.85 1.75 1.70 1.70 1.71 1.68 1.54 1.53 1.60 1.82 2.06 2.17 2.40 2.66 2.88 2.89 2.82 2.62 2.45 2.53 2.53 2.53 2.49 2.24 1.84 1.72 1.49 1.30 1.25 1.26 1.25 1.26 1.34 1.46
1.92 1.87 1.75 1.59 1.61 1.52 1.45 1.58 1.58 1.58 1.65 1.59 1.47 1.48 1.55 1.73 1.85 1.94 2.26 2.50 2.40 2.33 2.10 2.03 2.00 2.14 2.31 2.08 1.81 1.73 1.68 1.55 1.37 1.31 1.28 1.25 1.29 1.21
1.94 1.83 1.76 1.65 1.47 1.44 1.38 1.40 1.48 1.52 1.61 1.66 1.60 1.52 1.59 1.71 1.68 1.66 1.85 2.12 2.23 2.03 1.88 2.01 1.91 1.86 1.85 1.76 1.64 1.52 1.56 1.69 1.65 1.50 1.41 1.37 1.37 1.34
2.07 2.02 1.93 1.73 1.50 1.44 1.34 1.30 1.30 1.23 1.22 1.39 1.45 1.41 1.45 1.57 1.65 1.66 1.73 1.81 1.94 1.91 1.95 2.07 2.07 2.02 1.90 1.72 1.58 1.44 1.39 1.49 1.63 1.82 1.90 1.91 1.74 1.66
2.08 2.17 1.93 1.68 1.52 1.35 1.34 1.35 1.24 1.11 1.19 1.27 1.26 1.26 1.27 1.39 1.63 1.82 1.91 1.98 1.96 1.79 1.65 1.74 1.86 2.04 2.09 1.83 1.56 1.44 1.43 1.46 1.56 1.77 1.91 2.00 2.04 2.04
1.92 2.02 1.89 1.72 1.57 1.43 1.38 1.35 1.24 1.26 1.35 1.33 1.33 1.38 1.41 1.48 1.60 1.68 1.81 1.95 1.95 1.74 1.65 1.66 1.77 1.99 2.02 1.80 1.66 1.54 1.54 1.59 1.58 1.77 2.02 2.10 2.10 2.12
2.07 2.04 1.98 1.84 1.69 1.55 1.50 1.53 1.56 1.55 1.49 1.49 1.53 1.53 1.51 1.51 1.57 1.65 1.74 1.84 1.82 1.65 1.55 1.66 1.77 1.97 1.99 1.92 1.81 1.59 1.57 1.53 1.51 1.70 2.00 2.09 2.08 2.09
2.06 1.96 2.03 1.96 1.82 1.71 1.64 1.64 1.64 1.60 1.56 1.59 1.57 1.56 1.54 1.52 1.57 1.62 1.65 1.67 1.69 1.67 1.61 1.61 1.81 2.04 2.11 1.87 1.54 1.45 1.43 1.37 1.44 1.68 1.86 1.91 1.77 1.73
1.71 1.73 1.84 1.86 1.76 1.70 1.65 1.62 1.57 1.62 1.68 1.62 1.57 1.60 1.61 1.60 1.63 1.67 1.67 1.71 1.69 1.67 1.67 1.73 1.83 1.91 1.93 1.70 1.42 1.24 1.35 1.42 1.52 1.61 1.70 1.71 1.59 1.56
1.49 1.55 1.61 1.67 1.68 1.70 1.71 1.71 1.65 1.66 1.69 1.68 1.65 1.66 1.67 1.64 1.66 1.66 1.61 1.62 1.72 1.76 1.77 1.69 1.69 1.70 1.70 1.73 1.65 1.43 1.30 1.51 1.67 1.63 1.57 1.62 1.59 1.57
1.34 1.38 1.43 1.45 1.50 1.55 1.56 1.63 1.65 1.65 1.66 1.69 1.65 1.65 1.69 1.68 1.68 1.66 1.65 1.68 1.70 1.74 1.73 1.60 1.60 1.81 1.94 2.02 1.86 1.60 1.55 1.59 1.72 1.75 1.75 1.81 1.75 1.67
1.33 1.35 1.33 1.34 1.39 1.47 1.55 1.63 1.67 1.70 1.74 1.72 1.69 1.69 1.72 1.73 1.72 1.73 1.74 1.76 1.77 1.76 1.77 1.80 1.91 2.05 2.13 2.10 1.90 1.82 1.90 1.89 1.89 1.86 1.75 1.72 1.65 1.51
1.31 1.30 1.28 1.28 1.32 1.41 1.49 1.56 1.63 1.69 1.69 1.71 1.77 1.75 1.69 1.68 1.68 1.72 1.73 1.77 1.84 1.92 2.01 2.02 2.00 1.99 1.98 2.03 2.01 1.93 1.88 1.95 2.01 1.95 1.76 1.64 1.49 1.33

GEFSNE_prec_meanprecacc_324.txt.gz
Total_Precipitation_Accumulation
3.00 3.20 3.14 2.94 2.96 3.04 3.28 3.58 3.67 3.42 3.24 3.03 2.67 2.53 2.57 2.58 2.68 2.54 2.61 2.50 2.04 1.79 1.73 1.72 1.70 1.72 1.83 1.98 2.23 2.52 2.72 2.80 2.94 3.20 3.56 3.93 4.26 4.59
3.23 3.31 3.16 2.90 3.06 3.05 3.15 3.49 3.82 3.92 3.57 3.01 2.75 2.62 2.69 2.49 2.52 2.26 2.30 2.18 1.85 1.69 1.58 1.54 1.48 1.44 1.46 1.53 1.66 1.93 2.13 2.29 2.45 2.57 2.75 2.99 3.29 3.55
3.13 3.05 2.96 3.01 3.20 3.11 3.22 3.37 3.64 3.93 3.60 3.13 2.96 2.92 2.98 2.87 2.69 2.32 2.02 1.90 1.76 1.81 1.65 1.50 1.42 1.38 1.43 1.51 1.57 1.67 1.84 2.04 2.21 2.34 2.49 2.68 2.81 2.97
3.08 3.06 2.91 3.04 3.14 3.11 3.18 3.15 3.27 3.63 3.52 3.24 3.14 3.19 3.10 2.94 2.83 2.63 2.21 1.98 1.99 2.06 1.81 1.64 1.53 1.47 1.43 1.43 1.52 1.60 1.70 1.85 2.00 2.08 2.13 2.18 2.32 2.58
3.06 2.97 2.82 2.93 2.83 2.89 2.93 2.94 2.94 3.08 3.30 3.19 3.04 3.15 3.06 2.92 2.88 2.73 2.61 2.68 2.39 2.17 1.98 1.78 1.64 1.55 1.51 1.43 1.47 1.55 1.66 1.72 1.73 1.86 1.99 2.08 2.13 2.21
2.70 2.63 2.64 2.78 2.86 2.85 2.74 2.72 2.81 2.96 3.08 3.12 3.06 3.15 3.16 3.19 3.12 2.97 2.96 2.89 2.67 2.15 2.04 1.79 1.65 1.52 1.44 1.36 1.39 1.55 1.68 1.74 1.77 1.74 1.81 1.91 2.00 2.10
2.42 2.26 2.29 2.63 2.78 2.76 2.53 2.65 2.73 2.79 2.88 3.01 3.05 3.13 3.22 3.46 3.29 3.03 2.92 3.00 2.81 2.51 2.30 2.00 1.82 1.69 1.61 1.54 1.47 1.47 1.51 1.61 1.72 1.84 1.98 2.09 2.15 2.20
2.16 2.12 2.11 2.18 2.22 2.27 2.28 2.31 2.38 2.45 2.67 3.00 3.07 3.04 3.01 3.11 3.27 3.24 3.17 3.07 2.93 2.78 2.80 2.64 2.27 2.18 2.03 1.84 1.71 1.45 1.29 1.34 1.50 1.64 1.91 2.18 2.44 2.51
2.13 2.20 1.90 1.71 1.90 1.92 2.09 2.09 2.01 2.10 2.26 2.56 2.75 2.76 2.87 2.89 3.21 3.24 3.31 3.32 3.22 3.13 3.13 3.10 2.75 2.42 2.11 1.99 1.91 1.54 1.36 1.29 1.34 1.46 1.60 1.84 2.15 2.48
2.01 2.06 2.01 1.88 1.86 2.01 2.11 2.05 1.88 1.83 1.82 1.79 2.00 2.31 2.59 2.90 2.99 3.07 3.21 3.28 3.27 3.08 3.00 3.01 2.79 2.62 2.25 1.96 1.84 1.63 1.43 1.29 1.25 1.32 1.35 1.43 1.59 1.86
1.96 1.91 1.87 1.80 1.92 1.84 1.78 1.78 1.80 1.77 1.63 1.62 1.66 1.88 2.13 2.24 2.46 2.72 2.95 2.95 2.86 2.67 2.51 2.59 2.59 2.59 2.54 2.28 1.90 1.78 1.56 1.34 1.27 1.28 1.26 1.27 1.36 1.48
1.95 1.89 1.79 1.63 1.66 1.59 1.52 1.64 1.65 1.66 1.75 1.70 1.57 1.55 1.61 1.78 1.90 1.98 2.31 2.54 2.43 2.36 2.13 2.09 2.05 2.22 2.40 2.16 1.87 1.78 1.73 1.59 1.41 1.34 1.31 1.27 1.31 1.23
1.97 1.87 1.80 1.69 1.50 1.47 1.42 1.45 1.53 1.59 1.69 1.75 1.70 1.60 1.67 1.79 1.73 1.69 1.89 2.16 2.26 2.05 1.90 2.05 1.95 1.92 1.92 1.82 1.70 1.60 1.65 1.76 1.70 1.55 1.46 1.42 1.41 1.37
2.10 2.05 1.97 1.78 1.54 1.48 1.38 1.34 1.34 1.27 1.27 1.45 1.53 1.48 1.51 1.61 1.70 1.70 1.78 1.86 1.99 1.95 1.98 2.11 2.11 2.08 1.97 1.79 1.63 1.49 1.45 1.57 1.74 1.93 1.98 1.98 1.80 1.72
2.10 2.19 1.96 1.72 1.55 1.38 1.38 1.40 1.28 1.16 1.23 1.31 1.31 1.32 1.33 1.44 1.68 1.87 1.97 2.04 2.03 1.84 1.70 1.77 1.90 2.09 2.16 1.90 1.61 1.51 1.52 1.53 1.63 1.86 2.01 2.07 2.09 2.09
1.95 2.05 1.91 1.75 1.60 1.45 1.41 1.37 1.27 1.29 1.39 1.37 1.37 1.43 1.47 1.56 1.66 1.75 1.89 2.03 2.04 1.80 1.71 1.72 1.83 2.07 2.11 1.89 1.73 1.61 1.62 1.68 1.65 1.84 2.09 2.18 2.18 2.20
2.12 2.08 2.02 1.88 1.73 1.59 1.54 1.56 1.60 1.60 1.55 1.56 1.60 1.60 1.58 1.60 1.66 1.74 1.86 1.96 1.94 1.75 1.64 1.75 1.87 2.07 2.10 2.06 1.93 1.68 1.66 1.63 1.60 1.80 2.10 2.18 2.17 2.20
2.11 2.01 2.08 2.02 1.87 1.76 1.70 1.69 1.70 1.66 1.64 1.68 1.67 1.66 1.64 1.64 1.68 1.74 1.78 1.79 1.81 1.79 1.73 1.74 1.94 2.17 2.25 2.01 1.67 1.57 1.53 1.46 1.52 1.77 1.96 2.00 1.84 1.78
1.76 1.78 1.90 1.92 1.81 1.75 1.71 1.68 1.63 1.68 1.76 1.72 1.68 1.71 1.73 1.73 1.79 1.83 1.85 1.86 1.82 1.78 1.78 1.85 1.96 2.06 2.06 1.81 1.53 1.35 1.46 1.52 1.61 1.69 1.78 1.79 1.67 1.62
1.53 1.60 1.66 1.73 1.74 1.75 1.76 1.77 1.71 1.73 1.76 1.76 1.74 1.76 1.79 1.76 1.81 1.81 1.77 1.81 1.89 1.91 1.90 1.83 1.84 1.87 1.85 1.85 1.77 1.54 1.42 1.61 1.76 1.71 1.64 1.70 1.67 1.63
1.39 1.44 1.48 1.50 1.55 1.61 1.62 1.69 1.71 1.70 1.72 1.76 1.74 1.75 1.78 1.78 1.80 1.79 1.77 1.83 1.86 1.89 1.88 1.74 1.75 1.97 2.08 2.15 1.97 1.69 1.63 1.66 1.79 1.82 1.82 1.87 1.81 1.73
1.40 1.42 1.40 1.41 1.45 1.53 1.62 1.70 1.73 1.76 1.80 1.80 1.79 1.79 1.81 1.83 1.82 1.84 1.86 1.87 1.87 1.86 1.86 1.88 1.99 2.13 2.21 2.17 1.96 1.87 1.95 1.93 1.93 1.91 1.81 1.79 1.70 1.55
1.38 1.36 1.34 1.35 1.39 1.49 1.57 1.64 1.71 1.78 1.77 1.79 1.86 1.85 1.78 1.76 1.75 1.81 1.83 1.86 1.92 1.99 2.08 2.08 2.05 2.04 2.04 2.09 2.07 1.98 1.92 1.99 2.05 1.99 1.80 1.69 1.54 1.36

GEFSNE_prec_meanprecacc_330.txt.gz
Total_Precipitation_Accumulation
3.02 3.23 3.17 2.97 3.01 3.09 3.34 3.65 3.75 3.47 3.27 3.07 2.72 2.59 2.65 2.67 2.78 2.60 2.67 2.58 2.12 1.85 1.78 1.76 1.73 1.76 1.86 2.02 2.27 2.57 2.76 2.85 3.01 3.29 3.65 4.00 4.30 4.63
3.26 3.34 3.19 2.92 3.09 3.09 3.20 3.55 3.88 3.96 3.59 3.02 2.77 2.66 2.74 2.54 2.58 2.31 2.35 2.25 1.91 1.72 1.60 1.56 1.49 1.46 1.48 1.56 1.69 1.97 2.16 2.33 2.50 2.62 2.82 3.07 3.36 3.59
3.16 3.08 2.99 3.05 3.24 3.16 3.27 3.43 3.69 3.97 3.63 3.15 2.98 2.94 3.03 2.93 2.75 2.37 2.08 1.95 1.79 1.84 1.67 1.51 1.42 1.39 1.44 1.53 1.59 1.69 1.86 2.06 2.24 2.38 2.55 2.75 2.89 3.04
3.11 3.10 2.95 3.09 3.19 3.17 3.24 3.21 3.31 3.67 3.55 3.26 3.15 3.20 3.13 2.99 2.89 2.68 2.27 2.03 2.03 2.10 1.85 1.67 1.54 1.48 1.43 1.44 1.53 1.61 1.72 1.86 2.01 2.11 2.17 2.22 2.39 2.65
3.07 2.99 2.85 2.98 2.88 2.95 2.99 2.99 2.98 3.12 3.33 3.21 3.06 3.16 3.07 2.95 2.94 2.79 2.66 2.73 2.44 2.23 2.04 1.83 1.66 1.57 1.52 1.45 1.48 1.56 1.67 1.72 1.74 1.88 2.01 2.11 2.17 2.25
2.72 2.65 2.67 2.80 2.89 2.90 2.81 2.78 2.86 3.02 3.13 3.16 3.09 3.18 3.19 3.22 3.15 3.01 3.01 2.94 2.72 2.20 2.08 1.85 1.69 1.55 1.47 1.38 1.41 1.56 1.69 1.75 1.77 1.75 1.82 1.93 2.03 2.13
2.43 2.27 2.30 2.65 2.81 2.79 2.57 2.70 2.80 2.86 2.94 3.07 3.09 3.16 3.26 3.50 3.31 3.06 2.96 3.05 2.87 2.58 2.35 2.03 1.86 1.72 1.64 1.56 1.49 1.49 1.52 1.62 1.73 1.85 1.99 2.10 2.17 2.23
2.17 2.13 2.12 2.20 2.25 2.30 2.32 2.36 2.44 2.52 2.74 3.06 3.13 3.08 3.05 3.16 3.31 3.27 3.22 3.13 2.99 2.84 2.87 2.68 2.31 2.21 2.06 1.86 1.74 1.48 1.31 1.35 1.51 1.65 1.92 2.19 2.45 2.52
2.14 2.22 1.91 1.73 1.93 1.95 2.12 2.12 2.05 2.16 2.32 2.62 2.81 2.80 2.92 2.94 3.27 3.29 3.35 3.35 3.26 3.18 3.19 3.16 2.80 2.47 2.17 2.04 1.95 1.58 1.39 1.32 1.36 1.48 1.61 1.85 2.16 2.49
2.03 2.08 2.02 1.90 1.88 2.02 2.13 2.07 1.91 1.88 1.89 1.87 2.07 2.37 2.66 2.97 3.07 3.14 3.27 3.34 3.31 3.13 3.05 3.07 2.85 2.67 2.31 2.02 1.90 1.68 1.49 1.33 1.29 1.36 1.38 1.45 1.61 1.88
1.97 1.92 1.88 1.81 1.94 1.86 1.80 1.80 1.82 1.80 1.68 1.68 1.75 1.98 2.24 2.36 2.57 2.82 3.04 3.04 2.92 2.71 2.56 2.64 2.65 2.66 2.60 2.34 1.96 1.84 1.61 1.41 1.34 1.34 1.31 1.31 1.39 1.51
1.96 1.91 1.80 1.65 1.69 1.61 1.54 1.67 1.68 1.70 1.79 1.76 1.63 1.63 1.70 1.90 2.05 2.11 2.43 2.66 2.52 2.43 2.18 2.14 2.10 2.28 2.48 2.22 1.92 1.83 1.77 1.64 1.47 1.41 1.38 1.33 1.36 1.27
1.99 1.90 1.83 1.72 1.53 1.50 1.46 1.48 1.56 1.63 1.73 1.80 1.75 1.66 1.76 1.90 1.85 1.82 2.03 2.31 2.39 2.15 1.97 2.15 2.05 2.02 2.01 1.90 1.77 1.64 1.68 1.80 1.76 1.62 1.54 1.50 1.49 1.43
2.13 2.08 1.99 1.81 1.58 1.52 1.42 1.38 1.39 1.32 1.31 1.50 1.57 1.53 1.58 1.69 1.77 1.78 1.87 1.97 2.11 2.06 2.09 2.23 2.23 2.19 2.08 1.89 1.73 1.58 1.50 1.60 1.77 1.98 2.07 2.08 1.90 1.81
2.12 2.22 1.99 1.76 1.59 1.42 1.41 1.44 1.33 1.21 1.28 1.36 1.36 1.37 1.39 1.51 1.76 1.95 2.05 2.13 2.11 1.92 1.78 1.87 2.00 2.20 2.27 2.00 1.71 1.62 1.63 1.61 1.68 1.92 2.08 2.14 2.17 2.18
1.98 2.08 1.96 1.79 1.64 1.50 1.45 1.42 1.32 1.35 1.46 1.43 1.43 1.49 1.54 1.63 1.75 1.85 2.00 2.15 2.13 1.87 1.77 1.79 1.93 2.17 2.21 1.98 1.82 1.70 1.75 1.81 1.73 1.90 2.15 2.23 2.23 2.27
2.15 2.12 2.07 1.93 1.78 1.65 1.60 1.62 1.66 1.66 1.62 1.62 1.66 1.66 1.64 1.66 1.74 1.85 1.97 2.08 2.04 1.83 1.70 1.82 1.95 2.17 2.21 2.17 2.04 1.78 1.77 1.77 1.73 1.90 2.17 2.24 2.22 2.25
2.15 2.04 2.12 2.06 1.92 1.81 1.77 1.77 1.77 1.73 1.71 1.76 1.74 1.72 1.70 1.71 1.76 1.84 1.90 1.91 1.92 1.89 1.83 1.83 2.04 2.26 2.34 2.12 1.79 1.68 1.64 1.58 1.67 1.91 2.08 2.11 1.93 1.86
1.79 1.81 1.93 1.96 1.86 1.80 1.77 1.75 1.69 1.74 1.82 1.79 1.74 1.77 1.79 1.79 1.87 1.93 1.95 1.98 1.92 1.89 1.90 1.97 2.06 2.15 2.15 1.91 1.63 1.45 1.56 1.62 1.72 1.82 1.91 1.92 1.79 1.73
1.55 1.63 1.69 1.76 1.78 1.79 1.81 1.82 1.76 1.77 1.79 1.79 1.78 1.81 1.85 1.84 1.89 1.91 1.88 1.91 2.00 2.02 2.02 1.93 1.94 1.96 1.94 1.94 1.85 1.63 1.50 1.69 1.84 1.80 1.74 1.79 1.76 1.72
1.43 1.48 1.52 1.54 1.59 1.65 1.66 1.72 1.74 1.73 1.74 1.79 1.77 1.79 1.84 1.85 1.89 1.89 1.87 1.93 1.95 1.97 1.96 1.82 1.82 2.05 2.17 2.23 2.05 1.78 1.72 1.76 1.87 1.90 1.89 1.93 1.86 1.79
1.44 1.46 1.43 1.44 1.49 1.56 1.65 1.73 1.76 1.79 1.84 1.84 1.83 1.84 1.88 1.91 1.91 1.94 1.96 1.97 1.96 1.93 1.92 1.94 2.05 2.21 2.29 2.25 2.06 1.97 2.03 2.01 2.01 1.98 1.86 1.84 1.74 1.59
1.41 1.39 1.38 1.38 1.42 1.52 1.61 1.68 1.76 1.83 1.84 1.86 1.93 1.92 1.85 1.83 1.83 1.89 1.91 1.95 2.00 2.05 2.13 2.13 2.10 2.11 2.12 2.16 2.14 2.05 1.98 2.05 2.10 2.04 1.83 1.72 1.58 1.39

GEFSNE_prec_meanprecacc_336.txt.gz
Total_Precipitation_Accumulation
3.04 3.25 3.19 2.99 3.04 3.13 3.38 3.69 3.78 3.50 3.31 3.11 2.78 2.65 2.72 2.75 2.87 2.71 2.77 2.67 2.20 1.92 1.84 1.86 1.85 1.84 1.93 2.09 2.33 2.63 2.83 2.92 3.07 3.35 3.74 4.12 4.44 4.79
3.29 3.36 3.21 2.94 3.12 3.12 3.23 3.59 3.92 3.99 3.61 3.05 2.81 2.71 2.81 2.62 2.66 2.39 2.42 2.32 1.97 1.77 1.65 1.62 1.56 1.53 1.55 1.62 1.75 2.02 2.22 2.39 2.56 2.68 2.88 3.15 3.45 3.70
3.18 3.10 3.01 3.06 3.26 3.18 3.31 3.47 3.73 4.00 3.65 3.16 3.00 2.97 3.07 2.98 2.81 2.43 2.13 1.98 1.82 1.87 1.70 1.54 1.45 1.44 1.50 1.59 1.65 1.76 1.93 2.13 2.31 2.45 2.61 2.80 2.94 3.10
3.12 3.12 2.97 3.10 3.20 3.18 3.26 3.23 3.35 3.71 3.57 3.28 3.18 3.23 3.16 3.01 2.92 2.71 2.28 2.05 2.05 2.13 1.88 1.69 1.56 1.51 1.47 1.48 1.57 1.66 1.78 1.92 2.07 2.16 2.21 2.26 2.42 2.69
3.09 3.01 2.88 3.00 2.89 2.96 3.01 3.01 3.01 3.15 3.37 3.24 3.08 3.18 3.10 2.98 2.97 2.82 2.68 2.75 2.47 2.26 2.08 1.86 1.69 1.60 1.55 1.48 1.52 1.61 1.71 1.76 1.76 1.90 2.04 2.13 2.19 2.27
2.72 2.65 2.68 2.83 2.90 2.92 2.82 2.80 2.88 3.04 3.16 3.18 3.11 3.20 3.22 3.25 3.18 3.05 3.04 2.97 2.75 2.24 2.13 1.89 1.73 1.59 1.51 1.43 1.45 1.60 1.72 1.77 1.79 1.76 1.83 1.94 2.04 2.14
2.44 2.28 2.32 2.67 2.82 2.80 2.59 2.72 2.82 2.88 2.95 3.09 3.11 3.18 3.27 3.52 3.34 3.09 3.01 3.10 2.92 2.62 2.40 2.09 1.92 1.76 1.67 1.60 1.52 1.51 1.53 1.63 1.74 1.86 2.00 2.11 2.18 2.24
2.18 2.14 2.13 2.21 2.26 2.31 2.33 2.37 2.46 2.53 2.75 3.08 3.14 3.10 3.07 3.18 3.33 3.31 3.26 3.19 3.07 2.89 2.90 2.71 2.35 2.25 2.08 1.88 1.75 1.49 1.32 1.36 1.52 1.66 1.93 2.20 2.46 2.54
2.15 2.22 1.92 1.73 1.94 1.96 2.14 2.15 2.07 2.18 2.35 2.64 2.83 2.82 2.95 2.98 3.31 3.35 3.41 3.42 3.33 3.25 3.25 3.20 2.83 2.50 2.19 2.06 1.97 1.59 1.41 1.33 1.38 1.49 1.63 1.87 2.18 2.52
2.04 2.08 2.03 1.91 1.89 2.04 2.16 2.09 1.93 1.90 1.93 1.90 2.10 2.40 2.69 3.01 3.13 3.22 3.37 3.45 3.44 3.25 3.14 3.15 2.91 2.71 2.34 2.06 1.93 1.71 1.51 1.35 1.31 1.38 1.41 1.48 1.64 1.91
1.98 1.93 1.89 1.82 1.95 1.88 1.83 1.82 1.83 1.83 1.73 1.74 1.79 2.02 2.28 2.40 2.62 2.89 3.12 3.14 3.03 2.81 2.64 2.71 2.71 2.72 2.64 2.37 2.00 1.87 1.64 1.44 1.37 1.37 1.34 1.34 1.43 1.55
1.97 1.92 1.82 1.67 1.71 1.64 1.56 1.69 1.69 1.72 1.83 1.79 1.67 1.65 1.73 1.94 2.09 2.16 2.50 2.75 2.61 2.51 2.25 2.22 2.18 2.38 2.57 2.28 1.96 1.87 1.82 1.68 1.51 1.45 1.42 1.38 1.42 1.32
1.99 1.91 1.84 1.74 1.55 1.52 1.48 1.50 1.58 1.66 1.77 1.83 1.78 1.68 1.77 1.92 1.90 1.88 2.10 2.40 2.49 2.24 2.06 2.25 2.16 2.14 2.15 2.02 1.86 1.71 1.74 1.86 1.81 1.67 1.59 1.55 1.54 1.48
2.14 2.09 2.01 1.83 1.60 1.54 1.44 1.41 1.43 1.36 1.35 1.53 1.59 1.55 1.60 1.71 1.80 1.82 1.92 2.04 2.18 2.14 2.18 2.33 2.33 2.29 2.21 2.03 1.86 1.68 1.57 1.64 1.81 2.03 2.12 2.15 1.97 1.89
2.14 2.25 2.02 1.79 1.62 1.44 1.44 1.48 1.38 1.26 1.32 1.38 1.39 1.40 1.41 1.53 1.78 1.98 2.09 2.19 2.19 1.99 1.85 1.95 2.09 2.28 2.35 2.09 1.81 1.72 1.73 1.67 1.72 1.95 2.12 2.20 2.23 2.24
2.01 2.12 2.00 1.82 1.67 1.52 1.48 1.45 1.36 1.38 1.49 1.46 1.46 1.52 1.57 1.66 1.78 1.88 2.04 2.21 2.23 1.95 1.84 1.88 2.02 2.26 2.29 2.07 1.92 1.79 1.85 1.92 1.80 1.95 2.20 2.28 2.28 2.32
2.20 2.16 2.10 1.95 1.80 1.68 1.63 1.65 1.70 1.70 1.67 1.67 1.71 1.72 1.72 1.75 1.83 1.93 2.05 2.15 2.12 1.90 1.76 1.88 2.02 2.27 2.31 2.28 2.16 1.88 1.86 1.88 1.85 1.97 2.24 2.30 2.27 2.29
2.19 2.06 2.15 2.09 1.95 1.85 1.82 1.82 1.84 1.80 1.79 1.85 1.83 1.80 1.77 1.79 1.85 1.93 1.99 1.99 1.99 1.96 1.89 1.89 2.11 2.34 2.42 2.21 1.90 1.78 1.73 1.68 1.81 2.05 2.16 2.16 1.97 1.90
1.83 1.84 1.96 1.98 1.88 1.84 1.81 1.79 1.74 1.80 1.89 1.84 1.81 1.83 1.84 1.83 1.91 1.98 2.04 2.08 2.03 1.99 1.99 2.06 2.15 2.24 2.22 1.97 1.70 1.54 1.62 1.66 1.80 1.95 2.00 1.97 1.83 1.78
1.59 1.66 1.72 1.80 1.82 1.83 1.85 1.86 1.80 1.81 1.84 1.83 1.81 1.83 1.87 1.87 1.92 1.94 1.92 1.99 2.10 2.13 2.14 2.06 2.03 2.04 2.01 2.00 1.92 1.70 1.57 1.74 1.89 1.88 1.83 1.83 1.80 1.78
1.45 1.50 1.55 1.57 1.62 1.68 1.69 1.76 1.78 1.76 1.77 1.81 1.78 1.80 1.85 1.87 1.91 1.91 1.90 1.98 2.04 2.08 2.08 1.95 1.94 2.16 2.27 2.32 2.13 1.85 1.78 1.82 1.92 1.94 1.95 2.00 1.90 1.82
1.47 1.49 1.46 1.47 1.52 1.60 1.67 1.75 1.77 1.80 1.85 1.86 1.84 1.86 1.90 1.94 1.94 1.97 1.99 2.01 2.01 2.01 2.02 2.05 2.16 2.33 2.42 2.34 2.14 2.04 2.09 2.07 2.09 2.06 1.93 1.91 1.79 1.62
1.44 1.43 1.42 1.42 1.45 1.55 1.64 1.70 1.77 1.84 1.85 1.88 1.94 1.93 1.87 1.86 1.86 1.92 1.95 1.99 2.05 2.11 2.22 2.23 2.20 2.21 2.23 2.25 2.21 2.13 2.06 2.11 2.17 2.12 1.90 1.79 1.64 1.42

GEFSNE_prec_meanprecacc_342.txt.gz
Total_Precipitation_Accumulation
3.06 3.27 3.21 3.02 3.07 3.16 3.42 3.74 3.83 3.54 3.33 3.15 2.83 2.68 2.75 2.79 2.92 2.75 2.82 2.73 2.27 1.99 1.93 2.01 1.98 1.93 1.99 2.13 2.36 2.66 2.86 2.96 3.14 3.42 3.81 4.18 4.50 4.86
3.30 3.38 3.22 2.96 3.14 3.15 3.27 3.63 3.96 4.03 3.64 3.08 2.84 2.75 2.87 2.66 2.71 2.44 2.48 2.38 2.03 1.83 1.71 1.73 1.70 1.62 1.61 1.66 1.78 2.04 2.24 2.42 2.58 2.72 2.93 3.22 3.53 3.78
3.20 3.12 3.02 3.08 3.28 3.20 3.33 3.50 3.77 4.04 3.68 3.19 3.03 3.02 3.13 3.03 2.84 2.47 2.18 2.05 1.88 1.93 1.76 1.61 1.58 1.55 1.57 1.63 1.68 1.78 1.95 2.15 2.33 2.48 2.65 2.85 3.01 3.17
3.15 3.15 2.99 3.12 3.22 3.20 3.28 3.25 3.37 3.74 3.61 3.31 3.21 3.26 3.20 3.06 2.96 2.74 2.31 2.08 2.08 2.16 1.92 1.75 1.67 1.66 1.56 1.54 1.61 1.69 1.81 1.95 2.11 2.22 2.26 2.31 2.47 2.73
3.13 3.06 2.92 3.04 2.92 2.99 3.03 3.03 3.03 3.18 3.40 3.27 3.11 3.21 3.13 3.01 2.99 2.84 2.70 2.77 2.48 2.27 2.09 1.88 1.77 1.74 1.67 1.55 1.57 1.66 1.76 1.80 1.81 1.95 2.09 2.19 2.23 2.31
2.74 2.67 2.70 2.86 2.95 2.97 2.87 2.83 2.91 3.07 3.19 3.23 3.15 3.23 3.25 3.28 3.21 3.08 3.07 2.99 2.77 2.25 2.15 1.92 1.79 1.69 1.62 1.51 1.53 1.67 1.77 1.82 1.84 1.81 1.88 1.99 2.08 2.17
2.45 2.29 2.33 2.68 2.84 2.83 2.62 2.76 2.87 2.92 2.99 3.13 3.14 3.22 3.31 3.56 3.37 3.12 3.04 3.13 2.96 2.66 2.44 2.13 1.98 1.85 1.79 1.70 1.61 1.58 1.59 1.68 1.78 1.90 2.03 2.14 2.20 2.25
2.19 2.15 2.14 2.23 2.27 2.33 2.35 2.40 2.49 2.58 2.80 3.13 3.19 3.15 3.11 3.22 3.38 3.36 3.31 3.24 3.12 2.94 2.95 2.78 2.43 2.35 2.20 1.99 1.85 1.56 1.36 1.40 1.55 1.69 1.95 2.22 2.48 2.56
2.16 2.24 1.92 1.74 1.95 1.97 2.15 2.16 2.09 2.20 2.37 2.67 2.87 2.86 2.99 3.03 3.38 3.41 3.48 3.48 3.39 3.32 3.33 3.30 2.93 2.60 2.28 2.13 2.04 1.66 1.46 1.37 1.41 1.51 1.65 1.88 2.20 2.54
2.05 2.10 2.04 1.92 1.91 2.06 2.17 2.11 1.95 1.92 1.94 1.92 2.13 2.45 2.75 3.07 3.20 3.30 3.46 3.54 3.53 3.34 3.25 3.26 3.03 2.83 2.43 2.13 1.99 1.76 1.55 1.40 1.35 1.41 1.43 1.50 1.66 1.93
1.99 1.94 1.90 1.83 1.97 1.90 1.85 1.84 1.86 1.85 1.75 1.76 1.82 2.05 2.32 2.45 2.69 2.97 3.21 3.23 3.12 2.90 2.75 2.83 2.83 2.83 2.74 2.46 2.06 1.93 1.69 1.49 1.42 1.41 1.39 1.39 1.48 1.61
1.98 1.93 1.83 1.68 1.72 1.66 1.58 1.71 1.72 1.74 1.86 1.82 1.69 1.68 1.76 1.97 2.13 2.20 2.55 2.81 2.68 2.58 2.34 2.32 2.27 2.48 2.66 2.36 2.04 1.94 1.87 1.74 1.58 1.51 1.47 1.43 1.49 1.39
2.01 1.92 1.85 1.76 1.57 1.55 1.50 1.52 1.61 1.68 1.80 1.87 1.81 1.71 1.81 1.96 1.93 1.92 2.14 2.45 2.55 2.30 2.14 2.36 2.27 2.26 2.27 2.12 1.95 1.80 1.81 1.92 1.88 1.73 1.64 1.59 1.59 1.54
2.16 2.11 2.03 1.85 1.62 1.56 1.46 1.43 1.46 1.39 1.38 1.56 1.63 1.58 1.63 1.74 1.82 1.84 1.95 2.08 2.23 2.19 2.25 2.42 2.44 2.40 2.31 2.12 1.96 1.80 1.68 1.73 1.88 2.09 2.18 2.21 2.02 1.94
2.16 2.28 2.06 1.82 1.65 1.46 1.46 1.50 1.41 1.28 1.34 1.41 1.42 1.43 1.44 1.56 1.81 2.02 2.13 2.23 2.23 2.04 1.91 2.02 2.17 2.38 2.45 2.18 1.89 1.82 1.85 1.77 1.80 2.01 2.17 2.25 2.29 2.30
2.04 2.15 2.04 1.86 1.69 1.55 1.50 1.48 1.38 1.40 1.51 1.49 1.50 1.57 1.62 1.71 1.84 1.94 2.11 2.29 2.31 2.02 1.91 1.95 2.09 2.34 2.37 2.14 2.00 1.87 1.95 2.05 1.90 2.04 2.28 2.35 2.34 2.38
2.23 2.18 2.12 1.98 1.83 1.71 1.66 1.68 1.71 1.72 1.69 1.70 1.75 1.76 1.76 1.80 1.88 1.98 2.10 2.21 2.18 1.95 1.82 1.95 2.09 2.34 2.38 2.34 2.23 1.96 1.95 2.00 1.97 2.07 2.34 2.38 2.34 2.35
2.22 2.09 2.18 2.12 1.97 1.88 1.85 1.84 1.85 1.81 1.80 1.87 1.86 1.85 1.83 1.86 1.91 1.97 2.03 2.02 2.02 2.00 1.94 1.95 2.17 2.40 2.48 2.27 1.96 1.85 1.81 1.77 1.91 2.14 2.24 2.24 2.04 1.96
1.86 1.87 1.99 2.01 1.91 1.87 1.84 1.81 1.76 1.82 1.91 1.87 1.85 1.88 1.89 1.88 1.96 2.02 2.07 2.11 2.06 2.02 2.04 2.11 2.21 2.29 2.27 2.01 1.74 1.59 1.68 1.74 1.90 2.05 2.08 2.04 1.89 1.83
1.63 1.70 1.76 1.83 1.85 1.86 1.88 1.89 1.82 1.84 1.86 1.86 1.85 1.88 1.92 1.91 1.96 1.99 1.97 2.03 2.13 2.16 2.18 2.10 2.08 2.10 2.07 2.06 1.97 1.76 1.63 1.81 1.95 1.96 1.90 1.90 1.86 1.83
1.50 1.55 1.60 1.62 1.66 1.72 1.73 1.80 1.82 1.79 1.80 1.84 1.81 1.83 1.88 1.90 1.94 1.95 1.94 2.02 2.08 2.12 2.12 2.01 2.00 2.22 2.34 2.39 2.19 1.90 1.84 1.88 1.98 2.00 2.02 2.07 1.98 1.89
1.54 1.55 1.53 1.54 1.58 1.65 1.72 1.79 1.82 1.84 1.89 1.89 1.87 1.89 1.94 1.97 1.98 2.01 2.03 2.05 2.04 2.04 2.06 2.11 2.23 2.40 2.49 2.42 2.20 2.09 2.15 2.13 2.16 2.13 2.01 2.00 1.86 1.69
1.50 1.49 1.47 1.46 1.50 1.60 1.69 1.76 1.82 1.89 1.89 1.92 1.98 1.96 1.90 1.89 1.89 1.96 1.98 2.03 2.09 2.16 2.27 2.30 2.29 2.30 2.31 2.34 2.29 2.20 2.12 2.18 2.25 2.21 1.98 1.88 1.72 1.48